Year,Month,Day,Hour,Minute,Value (Times are PST for insolation in W/m^2)
2022,12,07,00,00,0.00
2022,12,07,00,01,0.00
2022,12,07,00,02,0.00
2022,12,07,00,03,0.00
2022,12,07,00,04,0.00
2022,12,07,00,05,0.00
2022,12,07,00,06,0.00
2022,12,07,00,07,0.00
2022,12,07,00,08,0.00
2022,12,07,00,09,0.00
2022,12,07,00,10,0.00
2022,12,07,00,11,0.00
2022,12,07,00,12,0.00
2022,12,07,00,13,0.00
2022,12,07,00,14,0.00
2022,12,07,00,15,0.00
2022,12,07,00,16,0.00
2022,12,07,00,17,0.00
2022,12,07,00,18,0.00
2022,12,07,00,19,0.00
2022,12,07,00,20,0.00
2022,12,07,00,21,0.00
2022,12,07,00,22,0.00
2022,12,07,00,23,0.00
2022,12,07,00,24,0.00
2022,12,07,00,25,0.00
2022,12,07,00,26,0.00
2022,12,07,00,27,0.00
2022,12,07,00,28,0.00
2022,12,07,00,29,0.00
2022,12,07,00,30,0.00
2022,12,07,00,31,0.00
2022,12,07,00,32,0.00
2022,12,07,00,33,0.00
2022,12,07,00,34,0.00
2022,12,07,00,35,0.00
2022,12,07,00,36,0.00
2022,12,07,00,37,0.00
2022,12,07,00,38,0.00
2022,12,07,00,39,0.00
2022,12,07,00,40,0.00
2022,12,07,00,41,0.00
2022,12,07,00,42,0.00
2022,12,07,00,43,0.00
2022,12,07,00,44,0.00
2022,12,07,00,45,0.00
2022,12,07,00,46,0.00
2022,12,07,00,47,0.00
2022,12,07,00,48,0.00
2022,12,07,00,49,0.00
2022,12,07,00,50,0.00
2022,12,07,00,51,0.00
2022,12,07,00,52,0.00
2022,12,07,00,53,0.00
2022,12,07,00,54,0.00
2022,12,07,00,55,0.00
2022,12,07,00,56,0.00
2022,12,07,00,57,0.00
2022,12,07,00,58,0.00
2022,12,07,00,59,0.00
2022,12,07,01,00,0.00
2022,12,07,01,01,0.00
2022,12,07,01,02,0.00
2022,12,07,01,03,0.00
2022,12,07,01,04,0.00
2022,12,07,01,05,0.00
2022,12,07,01,06,0.00
2022,12,07,01,07,0.00
2022,12,07,01,08,0.00
2022,12,07,01,09,0.00
2022,12,07,01,10,0.00
2022,12,07,01,11,0.00
2022,12,07,01,12,0.00
2022,12,07,01,13,0.00
2022,12,07,01,14,0.00
2022,12,07,01,15,0.00
2022,12,07,01,16,0.00
2022,12,07,01,17,0.00
2022,12,07,01,18,0.00
2022,12,07,01,19,0.00
2022,12,07,01,20,0.00
2022,12,07,01,21,0.00
2022,12,07,01,22,0.00
2022,12,07,01,23,0.00
2022,12,07,01,24,0.00
2022,12,07,01,25,0.00
2022,12,07,01,26,0.00
2022,12,07,01,27,0.00
2022,12,07,01,28,0.00
2022,12,07,01,29,0.00
2022,12,07,01,30,0.00
2022,12,07,01,31,0.00
2022,12,07,01,32,0.00
2022,12,07,01,33,0.00
2022,12,07,01,34,0.00
2022,12,07,01,35,0.00
2022,12,07,01,36,0.00
2022,12,07,01,37,0.00
2022,12,07,01,38,0.00
2022,12,07,01,39,0.00
2022,12,07,01,40,0.00
2022,12,07,01,41,0.00
2022,12,07,01,42,0.00
2022,12,07,01,43,0.00
2022,12,07,01,44,0.00
2022,12,07,01,45,0.00
2022,12,07,01,46,0.00
2022,12,07,01,47,0.00
2022,12,07,01,48,0.00
2022,12,07,01,49,0.00
2022,12,07,01,50,0.00
2022,12,07,01,51,0.00
2022,12,07,01,52,0.00
2022,12,07,01,53,0.00
2022,12,07,01,54,0.00
2022,12,07,01,55,0.00
2022,12,07,01,56,0.00
2022,12,07,01,57,0.00
2022,12,07,01,58,0.00
2022,12,07,01,59,0.00
2022,12,07,02,00,0.00
2022,12,07,02,01,0.00
2022,12,07,02,02,0.00
2022,12,07,02,03,0.00
2022,12,07,02,04,0.00
2022,12,07,02,05,0.00
2022,12,07,02,06,0.00
2022,12,07,02,07,0.00
2022,12,07,02,08,0.00
2022,12,07,02,09,0.00
2022,12,07,02,10,0.00
2022,12,07,02,11,0.00
2022,12,07,02,12,0.00
2022,12,07,02,13,0.00
2022,12,07,02,14,0.00
2022,12,07,02,15,0.00
2022,12,07,02,16,0.00
2022,12,07,02,17,0.00
2022,12,07,02,18,0.00
2022,12,07,02,19,0.00
2022,12,07,02,20,0.00
2022,12,07,02,21,0.00
2022,12,07,02,22,0.00
2022,12,07,02,23,0.00
2022,12,07,02,24,0.00
2022,12,07,02,25,0.00
2022,12,07,02,26,0.00
2022,12,07,02,27,0.00
2022,12,07,02,28,0.00
2022,12,07,02,29,0.00
2022,12,07,02,30,0.00
2022,12,07,02,31,0.00
2022,12,07,02,32,0.00
2022,12,07,02,33,0.00
2022,12,07,02,34,0.00
2022,12,07,02,35,0.00
2022,12,07,02,36,0.00
2022,12,07,02,37,0.00
2022,12,07,02,38,0.00
2022,12,07,02,39,0.00
2022,12,07,02,40,0.00
2022,12,07,02,41,0.00
2022,12,07,02,42,0.00
2022,12,07,02,43,0.00
2022,12,07,02,44,0.00
2022,12,07,02,45,0.00
2022,12,07,02,46,0.00
2022,12,07,02,47,0.00
2022,12,07,02,48,0.00
2022,12,07,02,49,0.00
2022,12,07,02,50,0.00
2022,12,07,02,51,0.00
2022,12,07,02,52,0.00
2022,12,07,02,53,0.00
2022,12,07,02,54,0.00
2022,12,07,02,55,0.00
2022,12,07,02,56,0.00
2022,12,07,02,57,0.00
2022,12,07,02,58,0.00
2022,12,07,02,59,0.00
2022,12,07,03,00,0.00
2022,12,07,03,01,0.00
2022,12,07,03,02,0.00
2022,12,07,03,03,0.00
2022,12,07,03,04,0.00
2022,12,07,03,05,0.00
2022,12,07,03,06,0.00
2022,12,07,03,07,0.00
2022,12,07,03,08,0.00
2022,12,07,03,09,0.00
2022,12,07,03,10,0.00
2022,12,07,03,11,0.00
2022,12,07,03,12,0.00
2022,12,07,03,13,0.00
2022,12,07,03,14,0.00
2022,12,07,03,15,0.00
2022,12,07,03,16,0.00
2022,12,07,03,17,0.00
2022,12,07,03,18,0.00
2022,12,07,03,19,0.00
2022,12,07,03,20,0.00
2022,12,07,03,21,0.00
2022,12,07,03,22,0.00
2022,12,07,03,23,0.00
2022,12,07,03,24,0.00
2022,12,07,03,25,0.00
2022,12,07,03,26,0.00
2022,12,07,03,27,0.00
2022,12,07,03,28,0.00
2022,12,07,03,29,0.00
2022,12,07,03,30,0.00
2022,12,07,03,31,0.00
2022,12,07,03,32,0.00
2022,12,07,03,33,0.00
2022,12,07,03,34,0.00
2022,12,07,03,35,0.00
2022,12,07,03,36,0.00
2022,12,07,03,37,0.00
2022,12,07,03,38,0.00
2022,12,07,03,39,0.00
2022,12,07,03,40,0.00
2022,12,07,03,41,0.00
2022,12,07,03,42,0.00
2022,12,07,03,43,0.00
2022,12,07,03,44,0.00
2022,12,07,03,45,0.00
2022,12,07,03,46,0.00
2022,12,07,03,47,0.00
2022,12,07,03,48,0.00
2022,12,07,03,49,0.00
2022,12,07,03,50,0.00
2022,12,07,03,51,0.00
2022,12,07,03,52,0.00
2022,12,07,03,53,0.00
2022,12,07,03,54,0.00
2022,12,07,03,55,0.00
2022,12,07,03,56,0.00
2022,12,07,03,57,0.00
2022,12,07,03,58,0.00
2022,12,07,03,59,0.00
2022,12,07,04,00,0.00
2022,12,07,04,01,0.00
2022,12,07,04,02,0.00
2022,12,07,04,03,0.00
2022,12,07,04,04,0.00
2022,12,07,04,05,0.00
2022,12,07,04,06,0.00
2022,12,07,04,07,0.00
2022,12,07,04,08,0.00
2022,12,07,04,09,0.00
2022,12,07,04,10,0.00
2022,12,07,04,11,0.00
2022,12,07,04,12,0.00
2022,12,07,04,13,0.00
2022,12,07,04,14,0.00
2022,12,07,04,15,0.00
2022,12,07,04,16,0.00
2022,12,07,04,17,0.00
2022,12,07,04,18,0.00
2022,12,07,04,19,0.00
2022,12,07,04,20,0.00
2022,12,07,04,21,0.00
2022,12,07,04,22,0.00
2022,12,07,04,23,0.00
2022,12,07,04,24,0.00
2022,12,07,04,25,0.00
2022,12,07,04,26,0.00
2022,12,07,04,27,0.00
2022,12,07,04,28,0.00
2022,12,07,04,29,0.00
2022,12,07,04,30,0.00
2022,12,07,04,31,0.00
2022,12,07,04,32,0.00
2022,12,07,04,33,0.00
2022,12,07,04,34,0.00
2022,12,07,04,35,0.00
2022,12,07,04,36,0.00
2022,12,07,04,37,0.00
2022,12,07,04,38,0.00
2022,12,07,04,39,0.00
2022,12,07,04,40,0.00
2022,12,07,04,41,0.00
2022,12,07,04,42,0.00
2022,12,07,04,43,0.00
2022,12,07,04,44,0.00
2022,12,07,04,45,0.00
2022,12,07,04,46,0.00
2022,12,07,04,47,0.00
2022,12,07,04,48,0.00
2022,12,07,04,49,0.00
2022,12,07,04,50,0.00
2022,12,07,04,51,0.00
2022,12,07,04,52,0.00
2022,12,07,04,53,0.00
2022,12,07,04,54,0.00
2022,12,07,04,55,0.00
2022,12,07,04,56,0.00
2022,12,07,04,57,0.00
2022,12,07,04,58,0.00
2022,12,07,04,59,0.00
2022,12,07,05,00,0.00
2022,12,07,05,01,0.00
2022,12,07,05,02,0.00
2022,12,07,05,03,0.00
2022,12,07,05,04,0.00
2022,12,07,05,05,0.00
2022,12,07,05,06,0.00
2022,12,07,05,07,0.00
2022,12,07,05,08,0.00
2022,12,07,05,09,0.00
2022,12,07,05,10,0.00
2022,12,07,05,11,0.00
2022,12,07,05,12,0.00
2022,12,07,05,13,0.00
2022,12,07,05,14,0.00
2022,12,07,05,15,0.00
2022,12,07,05,16,0.00
2022,12,07,05,17,0.00
2022,12,07,05,18,0.00
2022,12,07,05,19,0.00
2022,12,07,05,20,0.00
2022,12,07,05,21,0.00
2022,12,07,05,22,0.00
2022,12,07,05,23,0.00
2022,12,07,05,24,0.00
2022,12,07,05,25,0.00
2022,12,07,05,26,0.00
2022,12,07,05,27,0.00
2022,12,07,05,28,0.00
2022,12,07,05,29,0.00
2022,12,07,05,30,0.00
2022,12,07,05,31,0.00
2022,12,07,05,32,0.00
2022,12,07,05,33,0.00
2022,12,07,05,34,0.00
2022,12,07,05,35,0.00
2022,12,07,05,36,0.00
2022,12,07,05,37,0.00
2022,12,07,05,38,0.00
2022,12,07,05,39,0.00
2022,12,07,05,40,0.00
2022,12,07,05,41,0.00
2022,12,07,05,42,0.00
2022,12,07,05,43,0.00
2022,12,07,05,44,0.00
2022,12,07,05,45,0.00
2022,12,07,05,46,0.00
2022,12,07,08,36,12.00
2022,12,07,08,37,12.00
2022,12,07,08,38,16.10
2022,12,07,08,39,18.00
2022,12,07,08,40,18.00
2022,12,07,08,41,17.40
2022,12,07,08,42,16.00
2022,12,07,08,43,16.90
2022,12,07,08,44,20.80
2022,12,07,08,45,25.00
2022,12,07,08,46,26.00
2022,12,07,08,47,26.00
2022,12,07,08,48,27.70
2022,12,07,08,49,28.00
2022,12,07,08,50,28.00
2022,12,07,08,51,27.60
2022,12,07,08,52,26.00
2022,12,07,08,53,26.70
2022,12,07,08,54,30.20
2022,12,07,08,55,36.30
2022,12,07,08,56,41.00
2022,12,07,08,57,42.00
2022,12,07,08,58,40.30
2022,12,07,08,59,40.00
2022,12,07,09,00,40.00
2022,12,07,09,01,40.00
2022,12,07,09,02,39.80
2022,12,07,09,03,38.40
2022,12,07,09,04,35.40
2022,12,07,09,05,31.50
2022,12,07,09,06,30.00
2022,12,07,09,07,31.90
2022,12,07,09,08,32.30
2022,12,07,09,09,28.80
2022,12,07,09,10,25.30
2022,12,07,09,11,21.00
2022,12,07,09,12,17.40
2022,12,07,09,13,13.60
2022,12,07,09,14,11.70
2022,12,07,09,15,10.20
2022,12,07,09,16,9.00
2022,12,07,09,17,9.00
2022,12,07,09,18,9.00
2022,12,07,09,19,9.00
2022,12,07,09,20,10.60
2022,12,07,09,21,11.00
2022,12,07,09,22,11.00
2022,12,07,09,23,11.00
2022,12,07,09,24,11.20
2022,12,07,09,25,12.00
2022,12,07,09,26,12.00
2022,12,07,09,27,12.90
2022,12,07,09,28,12.90
2022,12,07,09,29,12.00
2022,12,07,09,30,12.00
2022,12,07,09,31,12.00
2022,12,07,09,32,13.80
2022,12,07,09,33,14.10
2022,12,07,09,34,16.20
2022,12,07,09,35,18.00
2022,12,07,09,36,17.40
2022,12,07,09,37,15.30
2022,12,07,09,38,13.10
2022,12,07,09,39,11.40
2022,12,07,09,40,9.80
2022,12,07,09,41,9.00
2022,12,07,09,42,9.00
2022,12,07,09,43,9.00
2022,12,07,09,44,9.10
2022,12,07,09,45,11.10
2022,12,07,09,46,12.80
2022,12,07,09,47,16.80
2022,12,07,09,48,20.40
2022,12,07,09,49,23.00
2022,12,07,09,50,23.00
2022,12,07,09,51,23.00
2022,12,07,09,52,23.00
2022,12,07,09,53,21.50
2022,12,07,09,54,19.20
2022,12,07,09,55,18.00
2022,12,07,09,56,16.00
2022,12,07,09,57,16.00
2022,12,07,09,58,15.40
2022,12,07,09,59,14.00
2022,12,07,10,00,14.00
2022,12,07,10,01,15.10
2022,12,07,10,02,16.00
2022,12,07,10,03,14.60
2022,12,07,10,04,12.40
2022,12,07,10,05,12.00
2022,12,07,10,06,13.90
2022,12,07,10,07,14.20
2022,12,07,10,08,16.00
2022,12,07,10,09,16.00
2022,12,07,10,10,15.20
2022,12,07,10,11,14.00
2022,12,07,10,12,14.00
2022,12,07,10,13,15.30
2022,12,07,10,14,17.40
2022,12,07,10,15,18.80
2022,12,07,10,16,22.40
2022,12,07,10,17,26.00
2022,12,07,10,18,30.00
2022,12,07,10,19,29.60
2022,12,07,10,20,27.10
2022,12,07,10,21,24.20
2022,12,07,10,22,24.40
2022,12,07,10,23,28.20
2022,12,07,10,24,31.80
2022,12,07,10,25,32.30
2022,12,07,10,26,30.40
2022,12,07,10,27,26.40
2022,12,07,10,28,25.00
2022,12,07,10,29,23.00
2022,12,07,10,30,23.00
2022,12,07,10,31,23.00
2022,12,07,10,32,23.00
2022,12,07,10,33,22.00
2022,12,07,10,34,21.00
2022,12,07,10,35,21.00
2022,12,07,10,36,24.50
2022,12,07,10,37,34.70
2022,12,07,10,38,33.60
2022,12,07,10,39,26.10
2022,12,07,10,40,20.70
2022,12,07,10,41,17.60
2022,12,07,10,42,15.40
2022,12,07,10,43,14.80
2022,12,07,10,44,17.40
2022,12,07,10,45,21.20
2022,12,07,10,46,27.20
2022,12,07,10,47,37.00
2022,12,07,10,48,47.10
2022,12,07,10,49,50.70
2022,12,07,10,50,54.00
2022,12,07,10,51,56.30
2022,12,07,10,52,57.60
2022,12,07,10,53,58.70
2022,12,07,10,54,64.20
2022,12,07,10,55,61.60
2022,12,07,10,56,61.10
2022,12,07,10,57,60.80
2022,12,07,10,58,58.60
2022,12,07,10,59,58.00
2022,12,07,11,00,61.40
2022,12,07,11,01,60.10
2022,12,07,11,02,59.30
2022,12,07,11,03,51.20
2022,12,07,11,04,43.00
2022,12,07,11,05,40.00
2022,12,07,11,06,40.00
2022,12,07,11,07,43.00
2022,12,07,11,08,51.00
2022,12,07,11,09,60.60
2022,12,07,11,10,64.60
2022,12,07,11,11,65.00
2022,12,07,11,12,72.30
2022,12,07,11,13,76.80
2022,12,07,11,14,75.60
2022,12,07,11,15,71.80
2022,12,07,11,16,65.20
2022,12,07,11,17,62.50
2022,12,07,11,18,64.20
2022,12,07,11,19,67.40
2022,12,07,11,20,69.70
2022,12,07,11,21,81.10
2022,12,07,11,22,77.20
2022,12,07,11,23,85.00
2022,12,07,11,24,126.70
2022,12,07,11,25,98.60
2022,12,07,11,26,106.20
2022,12,07,11,27,102.00
2022,12,07,11,28,86.80
2022,12,07,11,29,75.30
2022,12,07,11,30,114.00
2022,12,07,11,31,122.30
2022,12,07,11,32,140.60
2022,12,07,11,33,150.60
2022,12,07,11,34,140.10
2022,12,07,11,35,186.00
2022,12,07,11,36,186.00
2022,12,07,11,37,186.00
2022,12,07,11,38,186.00
2022,12,07,11,39,186.00
2022,12,07,11,40,179.10
2022,12,07,11,41,154.80
2022,12,07,11,42,123.80
2022,12,07,11,43,98.80
2022,12,07,11,44,75.20
2022,12,07,11,45,62.40
2022,12,07,11,46,60.50
2022,12,07,11,47,62.80
2022,12,07,11,48,61.40
2022,12,07,11,49,60.80
2022,12,07,11,50,64.20
2022,12,07,11,51,72.80
2022,12,07,11,52,111.20
2022,12,07,11,53,134.00
2022,12,07,11,54,134.00
2022,12,07,11,55,818.20
2022,12,07,11,56,945.60
2022,12,07,11,57,946.00
2022,12,07,11,58,829.20
2022,12,07,11,59,362.00
2022,12,07,12,00,362.00
2022,12,07,12,01,641.00
2022,12,07,12,02,985.10
2022,12,07,12,03,1013.00
2022,12,07,12,04,1013.00
2022,12,07,12,05,960.20
2022,12,07,12,06,886.20
2022,12,07,12,07,912.20
2022,12,07,12,08,914.00
2022,12,07,12,09,914.00
2022,12,07,12,10,914.00
2022,12,07,12,11,914.00
2022,12,07,12,12,750.20
2022,12,07,12,13,550.00
2022,12,07,12,14,550.00
2022,12,07,12,15,550.00
2022,12,07,12,16,550.00
2022,12,07,12,17,550.00
2022,12,07,12,18,550.00
2022,12,07,12,19,537.70
2022,12,07,12,20,464.00
2022,12,07,12,21,464.00
2022,12,07,12,22,346.70
2022,12,07,12,23,136.10
2022,12,07,12,24,111.20
2022,12,07,12,25,99.40
2022,12,07,12,26,81.80
2022,12,07,12,27,69.50
2022,12,07,12,28,50.00
2022,12,07,12,29,37.30
2022,12,07,12,30,33.00
2022,12,07,12,31,32.80
2022,12,07,12,32,31.50
2022,12,07,12,33,30.70
2022,12,07,12,34,32.50
2022,12,07,12,35,34.10
2022,12,07,12,36,36.20
2022,12,07,12,37,40.50
2022,12,07,12,38,48.80
2022,12,07,12,39,52.70
2022,12,07,12,40,45.90
2022,12,07,12,41,37.00
2022,12,07,12,42,37.00
2022,12,07,12,43,35.90
2022,12,07,12,44,35.60
2022,12,07,12,45,44.00
2022,12,07,12,46,54.50
2022,12,07,12,47,61.20
2022,12,07,12,48,52.90
2022,12,07,12,49,43.40
2022,12,07,12,50,35.70
2022,12,07,12,51,29.90
2022,12,07,12,52,27.70
2022,12,07,12,53,26.40
2022,12,07,12,54,29.30
2022,12,07,12,55,34.40
2022,12,07,12,56,36.10
2022,12,07,12,57,32.20
2022,12,07,12,58,27.40
2022,12,07,12,59,26.00
2022,12,07,13,00,25.20
2022,12,07,13,01,25.00
2022,12,07,13,02,26.00
2022,12,07,13,03,26.00
2022,12,07,13,04,26.40
2022,12,07,13,05,29.50
2022,12,07,13,06,35.50
2022,12,07,13,07,37.80
2022,12,07,13,08,33.90
2022,12,07,13,09,35.40
2022,12,07,13,10,42.00
2022,12,07,13,11,48.20
2022,12,07,13,12,52.40
2022,12,07,13,13,50.90
2022,12,07,13,14,50.70
2022,12,07,13,15,60.00
2022,12,07,13,16,56.60
2022,12,07,13,17,43.50
2022,12,07,13,18,33.80
2022,12,07,13,19,28.90
2022,12,07,13,20,29.30
2022,12,07,13,21,31.40
2022,12,07,13,22,32.00
2022,12,07,13,23,28.40
2022,12,07,13,24,30.80
2022,12,07,13,25,50.80
2022,12,07,13,26,78.00
2022,12,07,13,27,69.30
2022,12,07,13,28,74.40
2022,12,07,13,29,121.50
2022,12,07,13,30,110.80
2022,12,07,13,31,58.30
2022,12,07,13,32,46.40
2022,12,07,13,33,46.50
2022,12,07,13,34,60.50
2022,12,07,13,35,77.70
2022,12,07,13,36,89.90
2022,12,07,13,37,86.60
2022,12,07,13,38,111.10
2022,12,07,13,39,146.00
2022,12,07,13,40,233.80
2022,12,07,13,41,341.00
2022,12,07,13,42,341.00
2022,12,07,13,43,341.00
2022,12,07,13,44,341.00
2022,12,07,13,45,206.70
2022,12,07,13,46,246.60
2022,12,07,13,47,250.00
2022,12,07,13,48,286.40
2022,12,07,13,49,439.90
2022,12,07,13,50,462.00
2022,12,07,13,51,462.00
2022,12,07,13,52,248.40
2022,12,07,13,53,91.20
2022,12,07,13,54,78.80
2022,12,07,13,55,67.20
2022,12,07,13,56,55.70
2022,12,07,13,57,49.00
2022,12,07,13,58,44.00
2022,12,07,13,59,44.70
2022,12,07,14,00,44.60
2022,12,07,14,01,36.40
2022,12,07,14,02,29.30
2022,12,07,14,03,23.20
2022,12,07,14,04,18.00
2022,12,07,14,05,14.60
2022,12,07,14,06,14.00
2022,12,07,14,07,12.20
2022,12,07,14,08,12.20
2022,12,07,14,09,16.00
2022,12,07,14,10,16.00
2022,12,07,14,11,16.60
2022,12,07,14,12,18.40
2022,12,07,14,13,19.90
2022,12,07,14,14,19.90
2022,12,07,14,15,17.20
2022,12,07,14,16,14.60
2022,12,07,14,17,15.60
2022,12,07,14,18,16.00
2022,12,07,14,19,19.00
2022,12,07,14,20,23.30
2022,12,07,14,21,26.00
2022,12,07,14,22,24.50
2022,12,07,14,23,19.80
2022,12,07,14,24,18.00
2022,12,07,14,25,18.00
2022,12,07,14,26,18.60
2022,12,07,14,27,21.90
2022,12,07,14,28,25.40
2022,12,07,14,29,32.30
2022,12,07,14,30,36.70
2022,12,07,14,31,62.20
2022,12,07,14,32,32.90
2022,12,07,14,33,24.50
2022,12,07,14,34,23.00
2022,12,07,14,35,23.00
2022,12,07,14,36,23.00
2022,12,07,14,37,28.60
2022,12,07,14,38,32.00
2022,12,07,14,39,38.40
2022,12,07,14,40,32.80
2022,12,07,14,41,25.10
2022,12,07,14,42,20.50
2022,12,07,14,43,17.60
2022,12,07,14,44,16.00
2022,12,07,14,45,16.00
2022,12,07,14,46,15.10
2022,12,07,14,47,13.00
2022,12,07,14,48,12.00
2022,12,07,14,49,12.00
2022,12,07,14,50,13.60
2022,12,07,14,51,17.40
2022,12,07,14,52,18.90
2022,12,07,14,53,17.80
2022,12,07,14,54,16.00
2022,12,07,14,55,15.50
2022,12,07,14,56,14.80
2022,12,07,14,57,16.90
2022,12,07,14,58,18.00
2022,12,07,14,59,18.00
2022,12,07,15,00,18.00
2022,12,07,15,01,18.00
2022,12,07,15,02,20.70
2022,12,07,15,03,23.10
2022,12,07,15,04,25.00
2022,12,07,15,05,25.20
2022,12,07,15,06,25.10
2022,12,07,15,07,22.30
2022,12,07,15,08,20.10
2022,12,07,15,09,19.00
2022,12,07,15,10,19.00
2022,12,07,15,11,18.30
2022,12,07,15,12,18.80
2022,12,07,15,13,22.60
2022,12,07,15,14,23.10
2022,12,07,15,15,26.30
2022,12,07,15,16,28.40
2022,12,07,15,17,28.80
2022,12,07,15,18,26.00
2022,12,07,15,19,25.50
2022,12,07,15,20,25.50
2022,12,07,15,21,26.00
2022,12,07,15,22,26.00
2022,12,07,15,23,25.20
2022,12,07,15,24,25.90
2022,12,07,15,25,26.10
2022,12,07,15,26,28.30
2022,12,07,15,27,30.00
2022,12,07,15,28,30.00
2022,12,07,15,29,29.20
2022,12,07,15,30,26.60
2022,12,07,15,31,23.90
2022,12,07,15,32,24.20
2022,12,07,15,33,25.00
2022,12,07,15,34,25.80
2022,12,07,15,35,27.80
2022,12,07,15,36,28.00
2022,12,07,15,37,28.00
2022,12,07,15,38,27.60
2022,12,07,15,39,26.00
2022,12,07,15,40,26.00
2022,12,07,15,41,25.50
2022,12,07,15,42,25.00
2022,12,07,15,43,23.80
2022,12,07,15,44,23.00
2022,12,07,15,45,23.00
2022,12,07,15,46,21.30
2022,12,07,15,47,21.00
2022,12,07,15,48,20.70
2022,12,07,15,49,19.00
2022,12,07,15,50,18.70
2022,12,07,15,51,18.00
2022,12,07,15,52,17.10
2022,12,07,15,53,16.00
2022,12,07,15,54,14.70
2022,12,07,15,55,14.00
2022,12,07,15,56,12.40
2022,12,07,15,57,11.10
2022,12,07,15,58,11.00
2022,12,07,15,59,10.80
2022,12,07,16,00,9.00
2022,12,07,16,01,8.40
2022,12,07,16,02,7.00
2022,12,07,16,03,7.00
2022,12,07,16,04,7.00
2022,12,07,16,05,5.70
2022,12,07,16,06,5.00
2022,12,07,16,07,5.00
2022,12,07,16,08,5.00
2022,12,07,16,09,5.00
2022,12,07,16,10,5.00
2022,12,07,16,11,4.00
2022,12,07,16,12,0.00
2022,12,07,16,13,0.00
2022,12,07,16,14,0.00
2022,12,07,16,15,0.00
2022,12,07,16,16,0.00
2022,12,07,16,17,0.00
2022,12,07,16,18,0.00
2022,12,07,16,19,0.00
2022,12,07,16,20,0.00
2022,12,07,16,21,0.00
2022,12,07,16,22,0.00
2022,12,07,16,23,0.00
2022,12,07,16,24,0.00
2022,12,07,16,25,0.00
2022,12,07,16,26,0.00
2022,12,07,16,27,0.00
2022,12,07,16,28,0.00
2022,12,07,16,29,0.00
2022,12,07,16,30,0.00
2022,12,07,16,31,0.00
2022,12,07,16,32,0.00
2022,12,07,16,33,0.00
2022,12,07,16,34,0.00
2022,12,07,16,35,0.00
2022,12,07,16,36,0.00
2022,12,07,16,37,0.00
2022,12,07,16,38,0.00
2022,12,07,16,39,0.00
2022,12,07,16,40,0.00
2022,12,07,16,41,0.00
2022,12,07,16,42,0.00
2022,12,07,16,43,0.00
2022,12,07,16,44,0.00
2022,12,07,16,45,0.00
2022,12,07,16,46,0.00
2022,12,07,16,47,0.00
2022,12,07,16,48,0.00
2022,12,07,16,49,0.00
2022,12,07,16,50,0.00
2022,12,07,16,51,0.00
2022,12,07,16,52,0.00
2022,12,07,16,53,0.00
2022,12,07,16,54,0.00
2022,12,07,16,55,0.00
2022,12,07,16,56,0.00
2022,12,07,16,57,0.00
2022,12,07,16,58,0.00
2022,12,07,16,59,0.00
2022,12,07,17,00,0.00
2022,12,07,17,01,0.00
2022,12,07,17,02,0.00
2022,12,07,17,03,0.00
2022,12,07,17,04,0.00
2022,12,07,17,05,0.00
2022,12,07,17,06,0.00
2022,12,07,17,07,0.00
2022,12,07,17,08,0.00
2022,12,07,17,09,0.00
2022,12,07,17,10,0.00
2022,12,07,17,11,0.00
2022,12,07,17,12,0.00
2022,12,07,17,13,0.00
2022,12,07,17,14,0.00
2022,12,07,17,15,0.00
2022,12,07,17,16,0.00
2022,12,07,17,17,0.00
2022,12,07,17,18,0.00
2022,12,07,17,19,0.00
2022,12,07,17,20,0.00
2022,12,07,17,21,0.00
2022,12,07,17,22,0.00
2022,12,07,17,23,0.00
2022,12,07,17,24,0.00
2022,12,07,17,25,0.00
2022,12,07,17,26,0.00
2022,12,07,17,27,0.00
2022,12,07,17,28,0.00
2022,12,07,17,29,0.00
2022,12,07,17,30,0.00
2022,12,07,17,31,0.00
2022,12,07,17,32,0.00
2022,12,07,17,33,0.00
2022,12,07,17,34,0.00
2022,12,07,17,35,0.00
2022,12,07,17,36,0.00
2022,12,07,17,37,0.00
2022,12,07,17,38,0.00
2022,12,07,17,39,0.00
2022,12,07,17,40,0.00
2022,12,07,17,41,0.00
2022,12,07,17,42,0.00
2022,12,07,17,43,0.00
2022,12,07,17,44,0.00
2022,12,07,17,45,0.00
2022,12,07,17,46,0.00
2022,12,07,17,47,0.00
2022,12,07,17,48,0.00
2022,12,07,17,49,0.00
2022,12,07,17,50,0.00
2022,12,07,17,51,0.00
2022,12,07,17,52,0.00
2022,12,07,17,53,0.00
2022,12,07,17,54,0.00
2022,12,07,17,55,0.00
2022,12,07,17,56,0.00
2022,12,07,17,57,0.00
2022,12,07,17,58,0.00
2022,12,07,17,59,0.00
2022,12,07,18,00,0.00
2022,12,07,18,01,0.00
2022,12,07,18,02,0.00
2022,12,07,18,03,0.00
2022,12,07,18,04,0.00
2022,12,07,18,05,0.00
2022,12,07,18,06,0.00
2022,12,07,18,07,0.00
2022,12,07,18,08,0.00
2022,12,07,18,09,0.00
2022,12,07,18,10,0.00
2022,12,07,18,11,0.00
2022,12,07,18,12,0.00
2022,12,07,18,13,0.00
2022,12,07,18,14,0.00
2022,12,07,18,15,0.00
2022,12,07,18,16,0.00
2022,12,07,18,17,0.00
2022,12,07,18,18,0.00
2022,12,07,18,19,0.00
2022,12,07,18,20,0.00
2022,12,07,18,21,0.00
2022,12,07,18,22,0.00
2022,12,07,18,23,0.00
2022,12,07,18,24,0.00
2022,12,07,18,25,0.00
2022,12,07,18,26,0.00
2022,12,07,18,27,0.00
2022,12,07,18,28,0.00
2022,12,07,18,29,0.00
2022,12,07,18,30,0.00
2022,12,07,18,31,0.00
2022,12,07,18,32,0.00
2022,12,07,18,33,0.00
2022,12,07,18,34,0.00
2022,12,07,18,35,0.00
2022,12,07,18,36,0.00
2022,12,07,18,37,0.00
2022,12,07,18,38,0.00
2022,12,07,18,39,0.00
2022,12,07,18,40,0.00
2022,12,07,18,41,0.00
2022,12,07,18,42,0.00
2022,12,07,18,43,0.00
2022,12,07,18,44,0.00
2022,12,07,18,45,0.00
2022,12,07,18,46,0.00
2022,12,07,18,47,0.00
2022,12,07,18,48,0.00
2022,12,07,18,49,0.00
2022,12,07,18,50,0.00
2022,12,07,18,51,0.00
2022,12,07,18,52,0.00
2022,12,07,18,53,0.00
2022,12,07,18,54,0.00
2022,12,07,18,55,0.00
2022,12,07,18,56,0.00
2022,12,07,18,57,0.00
2022,12,07,18,58,0.00
2022,12,07,18,59,0.00
2022,12,07,19,00,0.00
2022,12,07,19,01,0.00
2022,12,07,19,02,0.00
2022,12,07,19,03,0.00
2022,12,07,19,04,0.00
2022,12,07,19,05,0.00
2022,12,07,19,06,0.00
2022,12,07,19,07,0.00
2022,12,07,19,08,0.00
2022,12,07,19,09,0.00
2022,12,07,19,10,0.00
2022,12,07,19,11,0.00
2022,12,07,19,12,0.00
2022,12,07,19,13,0.00
2022,12,07,19,14,0.00
2022,12,07,19,15,0.00
2022,12,07,19,16,0.00
2022,12,07,19,17,0.00
2022,12,07,19,18,0.00
2022,12,07,19,19,0.00
2022,12,07,19,20,0.00
2022,12,07,19,21,0.00
2022,12,07,19,22,0.00
2022,12,07,19,23,0.00
2022,12,07,19,24,0.00
2022,12,07,19,25,0.00
2022,12,07,19,26,0.00
2022,12,07,19,27,0.00
2022,12,07,19,28,0.00
2022,12,07,19,29,0.00
2022,12,07,19,30,0.00
2022,12,07,19,31,0.00
2022,12,07,19,32,0.00
2022,12,07,19,33,0.00
2022,12,07,19,34,0.00
2022,12,07,19,35,0.00
2022,12,07,19,36,0.00
2022,12,07,19,37,0.00
2022,12,07,19,38,0.00
2022,12,07,19,39,0.00
2022,12,07,19,40,0.00
2022,12,07,19,41,0.00
2022,12,07,19,42,0.00
2022,12,07,19,43,0.00
2022,12,07,19,44,0.00
2022,12,07,19,45,0.00
2022,12,07,19,46,0.00
2022,12,07,19,47,0.00
2022,12,07,19,48,0.00
2022,12,07,19,49,0.00
2022,12,07,19,50,0.00
2022,12,07,19,51,0.00
2022,12,07,19,52,0.00
2022,12,07,19,53,0.00
2022,12,07,19,54,0.00
2022,12,07,19,55,0.00
2022,12,07,19,56,0.00
2022,12,07,19,57,0.00
2022,12,07,19,58,0.00
2022,12,07,19,59,0.00
2022,12,07,20,00,0.00
2022,12,07,20,01,0.00
2022,12,07,20,02,0.00
2022,12,07,20,03,0.00
2022,12,07,20,04,0.00
2022,12,07,20,05,0.00
2022,12,07,20,06,0.00
2022,12,07,20,07,0.00
2022,12,07,20,08,0.00
2022,12,07,20,09,0.00
2022,12,07,20,10,0.00
2022,12,07,20,11,0.00
2022,12,07,20,12,0.00
2022,12,07,20,13,0.00
2022,12,07,20,14,0.00
2022,12,07,20,15,0.00
2022,12,07,20,16,0.00
2022,12,07,20,17,0.00
2022,12,07,20,18,0.00
2022,12,07,20,19,0.00
2022,12,07,20,20,0.00
2022,12,07,20,21,0.00
2022,12,07,20,22,0.00
2022,12,07,20,23,0.00
2022,12,07,20,24,0.00
2022,12,07,20,25,0.00
2022,12,07,20,26,0.00
2022,12,07,20,27,0.00
2022,12,07,20,28,0.00
2022,12,07,20,29,0.00
2022,12,07,20,30,0.00
2022,12,07,20,31,0.00
2022,12,07,20,32,0.00